Flag for Germany Weather past 2 weeks in Forchheim, Bavaria, Germany

Now
57 °F

Overcast.


Feels Like: 57 °F
Forecast: 49 / 68 °F
Wind: 3 mph from North

Location: Bamberg

Current Time: May 24, 2015 at 5:39:21 AM

Latest Report: May 24, 2015 at 5:00 AM


Visibility: 8 mi

Pressure: 30.07 "Hg

Humidity: 75%

Dew point: 49 °F

Location of ForchheimLocation

Historic Weather in Forchheim — Graph

°F

Forchheim temperature yesterday

Maximum temperature yesterday: 67 °F (at 5:00 PM)
Minimum temperature yesterday: 38 °F (at 4:00 AM)
Average temperature yesterday: 56 °F

Past Weeks' High & Low Weather Summary

 TemperatureHumidityPressure
High85 °F (May 12, 4:00 PM)96% (May 10, 7:00 AM)30.38 "Hg (May 10, 7:00 AM)
Low34 °F (May 22, 6:00 AM)24% (May 14, 6:00 PM)29.70 "Hg (May 18, 8:00 PM)
Average57 °F61%30.08 "Hg
* Reported May 9 4:00 AM — May 24 4:00 AM, Forchheim, Weather by CustomWeather, © 2015

Note: Actual official high and low records may vary slightly from our data, if they occured in-between our weather recording intervals... More about our weather records

Advertising

Forchheim weather history for previous 24 hours

 ConditionsComfort  
Time TempWeatherWind HumidityBarometerVisibility
4:00 AM
Sun, May 24
58 °FOvercast.2 mph73%30.08 "Hg12 mi
3:00 AM58 °FOvercast.2 mph73%30.07 "Hg13 mi
2:00 AM59 °FOvercast.3 mph68%30.07 "Hg14 mi
1:00 AM57 °FOvercast.1 mph73%30.08 "Hg14 mi
12:00 AM59 °FOvercast.2 mph64%30.08 "Hg16 mi
11:00 PM
Sat, May 23
61 °FOvercast.3 mph58%30.07 "Hg19 mi
10:00 PM61 °FOvercast.2 mph58%30.06 "Hg22 mi
9:00 PM63 °FOvercast.3 mph54%30.04 "Hg28 mi
8:00 PM65 °FOvercast.3 mph46%30.03 "Hg31 mi
7:00 PM65 °FOvercast.3 mph48%30.03 "Hg31 mi
6:00 PM65 °FOvercast.5 mph44%30.03 "Hg37 mi
5:00 PM67 °FOvercast.5 mph37%30.03 "Hg34 mi
4:00 PM67 °FOvercast.5 mph36%30.03 "Hg40 mi
3:00 PM67 °FOvercast.3 mph35%30.04 "Hg40 mi
2:00 PM66 °FOvercast.5 mph37%30.06 "Hg28 mi
1:00 PM64 °FOvercast.5 mph39%30.08 "Hg37 mi
12:00 PM66 °FOvercast.6 mph36%30.09 "Hg28 mi
11:00 AM64 °FPassing clouds.3 mph43%30.10 "Hg28 mi
10:00 AM61 °FOvercast.3 mph47%30.12 "Hg17 mi
9:00 AM56 °FPartly sunny.3 mph54%30.14 "Hg19 mi
8:00 AM51 °FOvercast.3 mph65%30.15 "Hg19 mi
7:00 AM47 °FOvercast.1 mph80%30.15 "Hg14 mi
6:00 AM42 °FOvercast.1 mph90%30.15 "Hg9 mi
5:00 AM39 °FOvercast.1 mph91%30.16 "Hg16 mi
Weather by CustomWeather, © 2015

See weather overviewHow to use our weather pages